GFSFLT2_prec_radar_060.txt.gz
Reflectivity
31 36 30 29 28 13 -1 -7 0 9 1 -7 -18 -20 -20 -20 -19 -20 -20 -20 -20 -20 -20 -20 -20 -20 -20 -20 -20 -20 -20 -20
25 28 35 21 12 12 -0 -20 1 -7 7 6 -17 -20 -20 -20 -20 -20 -20 -20 -20 -20 -20 -20 -20 -20 -20 -20 -20 -20 -20 -20
33 32 32 10 -0 6 13 4 9 9 6 -8 -20 -20 -20 -20 -20 -20 -20 -20 -20 -20 -20 -20 -20 -20 -20 -20 -20 -20 -20 -20
28 37 22 14 16 9 12 7 -11 -11 -12 -20 -20 -17 -19 -20 -20 -20 -20 -20 -20 -20 -20 -20 -20 -20 -20 -20 -20 -20 -20 -20
30 32 14 20 10 4 2 -3 2 -8 -8 -20 -20 -20 -20 -20 -20 -20 -20 -20 -20 -20 -20 -20 -20 -20 -20 -20 -20 -20 -20 -20
35 3 10 12 6 -3 -13 -18 -20 -20 -20 -20 -20 -20 -20 -20 -20 -20 -20 -20 -20 -20 -20 -20 -20 -20 -20 -20 -20 -20 -20 -20
2 -18 -20 -18 -14 -14 -17 -11 -20 -20 -20 -20 -20 -20 -20 -20 -20 -20 -20 -20 -20 -20 -20 -20 -20 -20 -20 -20 -20 -20 -20 -20
9 2 -0 -6 -20 -20 -20 -20 -20 -20 -20 -20 -20 -20 -20 -20 -20 -20 -20 -20 -20 -20 -20 -20 -20 -20 -20 -20 -20 -20 -20 -20
-17 -11 -20 -20 -20 -20 -20 -20 -20 -20 -20 -20 -20 -20 -20 -20 -20 -20 -20 -20 -20 -20 -20 -20 -20 -20 -20 -20 -20 -20 -20 -20
6 10 -19 -20 -20 -20 -20 -20 -20 -20 -20 -20 -20 -20 -20 -20 -20 -20 -20 -20 -20 -20 -20 -20 -20 -20 -20 -20 -20 -20 -20 -20
-20 -20 -20 -20 -20 -20 -20 -20 -20 -20 -20 -20 -20 -20 -20 -20 -20 -20 -20 -20 -20 -20 -20 -20 -20 -20 -20 -20 -20 -20 -20 -20
-20 -20 -20 -20 -20 -20 -20 -20 -20 -20 -20 -20 -20 -20 -20 -20 -20 -20 -20 -20 -20 -20 -20 -20 -20 -20 -20 -20 -20 -20 -20 -20
-20 -20 -20 -20 -20 -20 -20 -20 -20 -20 -20 -20 -20 -20 -20 -20 -20 -20 -20 -20 -20 -20 -20 -20 -20 -20 -20 -20 -20 -20 -20 -20
-20 -20 -20 -20 -20 -20 -20 -20 -20 -20 -20 -20 -20 -20 -20 -20 -20 -20 -20 -20 -20 -20 -20 -20 -20 -20 -20 -20 -20 -20 -20 -20
-20 -20 -20 -20 -20 -20 -20 -20 -20 -20 -20 -20 -20 -20 -20 -20 -20 -20 -20 -20 -20 -20 -20 -20 -20 -20 -20 -20 -20 -20 -20 -20
-20 -20 25 -20 -20 -20 -20 -20 -20 -20 -20 -20 -20 -20 -20 -20 -20 -20 -20 -20 -20 -20 -20 -20 -20 -20 -20 -20 -20 -20 -20 -20
-15 16 -20 -20 -20 -20 -20 -20 -20 -20 -20 -20 -20 -20 -20 -20 -20 -20 -20 -20 -20 -20 -20 -20 -20 -20 -20 -20 -20 -20 -20 -20
-16 -20 -20 -20 -20 -20 -20 -20 -20 -20 -20 -20 -20 -17 -4 1 -20 -13 -20 -20 -20 -20 -20 -20 -20 -20 -20 -20 -20 -20 -20 -20
-20 -20 -20 -20 -20 -20 -20 -20 -20 -20 -20 -20 -13 11 -1 -20 4 31 -20 -20 -20 -20 -20 -20 -20 -20 -20 -20 -20 -20 -20 -20
-20 -20 -20 -20 -20 -20 -20 -20 -20 -20 -20 14 23 9 18 7 25 -20 -20 -20 -20 -20 -20 -20 -20 -20 -20 -20 -20 -20 -20 -20

GFSFLT2_prec_radar_066.txt.gz
Reflectivity
29 18 18 24 21 28 21 22 12 -13 -20 -20 -5 7 2 -19 -20 -20 -20 -19 -20 -20 -20 -20 -20 -20 -20 -20 -20 -20 -20 -20
25 21 32 36 23 26 17 7 -20 -18 -13 -20 4 10 13 3 -16 -20 -20 -20 -20 -20 -20 -20 -20 -20 -20 -20 -20 -20 -20 -20
30 40 35 37 35 22 29 8 -12 -1 5 1 -13 0 2 -8 -20 -20 -20 -20 -20 -20 -20 -20 -20 -20 -20 -20 -20 -20 -20 -20
33 40 34 38 24 1 6 -2 3 14 8 -0 12 7 -17 -20 -20 -20 -20 -20 -20 -20 -20 -20 -20 -20 -20 -20 -20 -20 -20 -20
35 29 36 30 19 9 9 12 5 -1 8 -14 -12 -12 -20 -20 -20 -20 -20 -20 -20 -20 -20 -20 -20 -20 -20 -20 -20 -20 -20 -20
29 37 35 34 17 5 6 2 -3 5 -12 -20 -15 -20 -20 -20 -20 -20 -20 -20 -20 -20 -20 -20 -20 -20 -20 -20 -20 -20 -20 -20
34 34 30 16 9 9 -12 -18 -16 -2 -2 -6 -4 -12 -20 -20 -20 -20 -20 -20 -20 -20 -20 -20 -20 -20 -20 -20 -20 -20 -20 -20
13 21 18 4 -4 -8 -4 -3 -16 -20 -20 -20 -20 -20 -20 -20 -20 -20 -20 -20 -20 -20 -20 -20 -20 -20 -20 -20 -20 -20 -20 -20
-8 8 -3 -19 -19 -15 -13 -20 -13 -8 17 -20 -20 -18 -17 -20 -20 -20 -20 -20 -20 -20 -20 -20 -20 -20 -20 -20 -20 -20 -20 -20
-20 -20 -19 -17 -17 -13 -19 -18 -20 -20 -20 -20 -20 -20 -20 -20 -20 -20 -20 -20 -20 -20 -20 -20 -20 -20 -20 -20 -20 -20 -20 -20
-2 5 -13 -20 -20 -20 -20 -20 7 18 -11 -20 -20 -20 -20 -20 -20 -20 -20 -20 -20 -20 -20 -20 -20 -20 -20 -20 -20 -20 -20 -20
-20 -20 -20 -20 -20 -20 -20 -20 16 20 -16 -20 -20 -20 -20 -20 -20 -20 -20 -20 -20 -20 -20 -20 -20 -20 -20 -20 -20 -20 -20 -20
-20 -20 -20 -20 -20 -20 -20 22 -20 27 -20 -20 -20 -20 -20 -20 -20 -20 -20 -20 -20 -20 -20 -20 -20 -20 -20 -20 -20 -20 -20 -20
-20 -20 -20 -20 -20 -20 -20 -20 -20 -20 -20 -20 -20 -20 -20 -20 -20 -20 -20 -20 -20 -20 -20 -20 -20 -20 -20 -20 -20 -20 -20 -20
-20 -20 -20 -20 -20 -20 -20 27 -20 -12 -20 -20 -20 -20 -20 -20 -20 -20 -20 -20 -20 -20 -20 -20 -20 -20 -20 -20 -20 -20 -20 -20
-20 -20 -20 -20 -20 -20 -20 25 -11 -20 -20 -20 -20 -20 -20 -20 -20 -20 -20 -20 -20 -20 -20 -20 -20 -20 -20 -20 -20 -20 -20 -20
-20 -20 -20 18 19 -2 25 25 22 -20 -20 -20 -20 -20 -20 -20 -20 -20 -20 -20 -20 -20 -20 -20 -20 -20 -20 -20 -20 -20 -20 -20
-20 -20 6 -20 -17 2 27 -5 -20 -20 -20 -20 -20 -20 -20 -20 -18 19 3 -14 -13 -14 -20 -20 -20 -20 -20 -20 -20 -20 -20 -20
9 -20 -20 26 -20 -20 9 21 -20 -20 -20 -20 -20 -20 -20 -18 -20 1 -15 24 3 -6 -20 -20 -20 -20 -20 -20 -20 -20 -20 -20
8 -12 -20 -20 -11 -1 24 -20 -20 -20 -20 -20 -20 -20 -20 -11 3 18 27 -7 -2 -20 -20 -20 -20 -20 -20 -20 -20 -20 -20 -20

GFSFLT2_prec_radar_072.txt.gz
Reflectivity
24 20 8 30 30 15 -8 -19 -20 -20 4 3 3 -19 -20 -20 -20 -20 -20 -20 -20 -19 -20 -20 -20 -20 -20 -20 -20 -20 -20 -20
14 26 27 28 27 27 3 -7 -12 -20 -2 3 -12 -20 -20 -4 -19 -20 -20 -20 -20 -20 -20 -20 -20 -20 -20 -20 -20 -20 -20 -20
28 28 31 35 33 19 -18 -14 -5 7 12 -3 0 5 11 -13 -20 -20 -20 -20 -20 -20 -20 -20 -20 -20 -20 -20 -20 -20 -20 -20
35 30 30 39 29 27 4 8 16 21 12 -18 -18 -2 1 -20 -20 -20 -20 -20 -20 -20 -20 -20 -20 -20 -20 -20 -20 -20 -20 -20
34 31 24 20 32 34 35 26 27 24 6 -12 -14 -18 -20 -20 -20 -20 -20 -20 -20 -20 -20 -20 -20 -20 -20 -20 -20 -20 -20 -20
28 26 24 -12 25 24 19 31 21 14 25 17 10 -20 -20 -20 -20 -20 -20 -20 -19 -19 -20 -20 -20 -20 -20 -20 -20 -20 -20 -20
21 6 7 25 20 14 4 24 22 25 24 14 5 -20 -20 -20 -20 -20 -20 -20 -20 -20 -20 -20 -20 -20 -20 -20 -20 -20 -20 -20
33 40 38 36 34 35 29 20 10 13 15 4 -20 -20 -20 -20 -10 -10 -20 -20 -20 -20 -20 -20 -20 -20 -20 -20 -20 -20 -20 -20
32 27 30 11 28 -8 8 10 5 21 -18 -18 -20 -19 23 -19 -20 -18 -20 -20 -20 -20 -20 -20 -20 -20 -20 -20 -20 -20 -20 -20
10 6 10 18 -17 5 11 -3 -11 -4 -9 -17 -20 -20 -20 2 -20 -20 -20 -20 -20 -20 -20 -20 -20 -20 -20 -20 -20 -20 -20 -20
-20 -20 5 0 3 4 -1 0 -20 -12 -4 -3 -19 -20 -20 -20 -20 -20 -20 -20 -20 -20 -20 -20 -20 -20 -20 -20 -20 -20 -20 -20
-20 -13 6 -4 -18 -20 -20 -1 7 -5 -1 -19 -5 -20 -20 -20 -20 -20 -20 -20 -20 -20 -20 -20 -20 -20 -20 -20 -20 -20 -20 -20
-20 -15 -4 -20 -20 -20 -20 -9 -4 1 -2 -9 23 -20 -20 -20 -20 -20 -20 -20 -20 -20 -20 -20 -20 -20 -20 -20 -20 -20 -20 -20
-20 -5 15 -20 -20 -20 -20 -5 -1 2 -18 -20 8 -20 -20 -20 -20 -20 -20 -20 -20 -20 -20 -20 -20 -20 -20 -20 -20 -20 -20 -20
-20 -20 -20 -20 -20 -20 -20 -3 -20 -11 -9 19 -3 -20 -20 -20 -20 -20 -20 -20 -20 -20 -20 -20 -20 -20 -20 -20 -20 -20 -20 -20
-20 -20 -20 -20 -20 -20 -20 -20 -20 -20 4 21 -20 -20 -20 -20 -20 -20 -20 -20 -20 -20 -20 -20 -20 -20 -20 -20 -20 -20 -20 -20
-20 -20 -20 -20 -20 -20 -20 -20 1 13 12 35 18 -20 -20 -20 -20 -20 -20 -20 -20 -20 -20 -20 -12 -20 -20 -20 -20 -20 -20 -20
-20 -20 -20 -20 -20 -20 -20 -20 -20 -20 -20 27 19 -20 -20 -20 -20 -20 -20 -20 -20 -7 -15 18 -6 -20 -20 -20 -20 -20 -20 -20
-20 -20 -20 -20 -20 -20 14 23 15 3 -7 -3 -10 -20 -20 -13 -20 -20 -20 -20 -20 -14 22 21 -20 -20 -20 -20 -20 -20 -20 -20
-20 -20 -20 -20 -20 -14 -19 -20 -20 -6 -20 20 -20 -20 -20 -20 -20 -20 -20 -20 4 14 14 -3 -6 -20 -20 -20 -20 -20 -20 -20

GFSFLT2_prec_radar_075.txt.gz
Reflectivity
14 -12 7 13 4 -20 -20 -20 -20 -20 -20 -20 -3 14 10 5 -20 -20 -20 -20 -20 -20 -20 -20 -20 -20 -20 -20 -20 -20 -20 -20
40 33 29 -6 5 27 8 -11 -14 4 -20 -20 7 12 6 -20 -17 6 8 -7 -20 -20 -20 -20 -20 -20 -20 -20 -20 -20 -20 -20
34 28 14 -20 19 25 12 11 11 -7 -18 -1 15 8 5 5 5 16 -5 -20 -20 -20 -20 -20 -20 -20 -20 -20 -20 -20 -20 -20
20 29 26 21 27 32 24 27 25 3 2 24 11 -11 -3 -6 5 -6 -20 -20 -20 -20 -20 -20 -20 -20 -20 -20 -20 -20 -20 -20
19 31 18 37 40 34 31 34 13 -5 13 20 19 -16 -19 -20 -16 -20 -20 -20 -20 -20 -20 -20 -20 -20 -20 -20 -20 -20 -20 -20
24 23 8 25 22 -8 -2 21 -19 18 18 31 28 14 4 -5 -20 -20 -20 -20 -20 -20 -20 -20 -20 -20 -20 -20 -20 -20 -20 -20
25 21 15 11 33 13 25 12 17 28 15 5 6 12 7 9 -7 -20 -20 -20 -20 -20 -20 -20 -20 -20 -20 -20 -20 -20 -20 -20
24 32 36 28 32 31 26 20 7 13 24 14 15 17 14 22 -20 -20 -20 -20 -20 -20 -20 -20 -20 -20 -20 -20 -20 -20 -20 -20
28 29 29 22 37 35 29 33 29 14 9 9 10 6 -13 -20 -20 -20 -14 -20 -20 -20 -20 -20 -20 -20 -20 -20 -20 -20 -20 -20
20 35 32 34 33 25 11 -1 -18 14 11 12 -3 -20 -20 -20 -20 -20 -20 -20 -20 -20 -20 -20 -20 -20 -20 -20 -20 -20 -20 -20
34 27 18 12 4 8 2 -0 12 10 6 3 -6 -20 -20 -20 -20 -20 -20 -20 -20 -20 -20 -20 -20 -20 -20 -20 -20 -20 -20 -20
15 10 3 4 -11 -10 -3 15 -4 -18 -7 -20 -20 -20 -20 -20 -20 -20 -20 -20 -20 -20 -20 -20 -20 -20 -20 -20 -20 -20 -20 -20
-20 -4 27 3 -14 -20 -20 -20 -1 5 15 -3 -7 -20 -19 -20 -20 -20 -20 -20 -20 -20 -20 -20 -20 -20 -20 -20 -20 -20 -20 -20
-18 -20 9 5 -20 -20 -20 -20 11 12 16 -16 -20 12 -12 -20 -20 -20 -20 -20 -20 -20 -20 -20 -20 -20 -20 -20 -20 -20 -20 -20
-20 -20 -9 -15 -20 -20 -20 0 5 3 25 -8 -20 -11 -15 -20 -20 -20 -20 -20 -20 -20 -20 -20 -20 -20 -20 -20 -20 -20 -20 -20
-20 -20 -20 -20 -20 -20 -20 1 8 2 4 -18 -20 18 -17 -20 -20 -20 -20 -20 -20 -20 -20 -20 -20 -20 -20 -14 -20 -20 -20 -20
-20 -20 -20 -20 -20 -2 -20 -20 -20 20 -16 -18 -20 1 30 -12 -20 -20 -20 -20 -20 -20 -20 -20 -20 -20 -20 -20 -20 -20 -20 -20
-20 -20 -20 -20 -20 -5 -20 -20 -20 -20 -20 16 17 -20 -3 9 -19 -12 -20 -20 -20 -20 -20 -20 -20 -10 -20 -20 -20 -20 -20 -20
-20 -20 -20 -20 -10 -14 -3 -20 -20 -9 -11 8 -20 6 13 -4 -13 -20 -20 -20 -20 -20 -20 -20 -10 -17 -20 -20 -20 -20 -20 -20
-20 -20 -20 -20 -20 -20 -18 -12 -20 -10 -17 -20 8 14 4 -16 -20 -20 -20 -20 -20 -20 -20 -20 -0 -18 -20 -20 -20 -20 -20 -20

GFSFLT2_prec_radar_078.txt.gz
Reflectivity
0 6 19 32 -20 15 1 -20 -20 -20 -20 -20 -20 -20 -20 -20 -20 -5 -12 -20 -20 -20 -20 -20 -20 -20 -20 -20 -20 -20 -20 -20
41 35 33 13 22 -20 -20 -20 -20 -20 -20 -20 -20 -20 -6 14 4 4 -13 -18 16 -7 -20 -20 -20 -20 -20 -20 -20 -20 -20 -20
45 44 35 -7 -20 -12 -20 -18 -14 -20 -20 -7 -16 -20 8 12 -16 2 -5 12 3 -20 -20 -20 -20 -20 -20 -20 -20 -20 -20 -20
28 29 40 29 16 -5 6 -10 -14 -3 -0 7 -8 -9 12 12 13 12 8 -12 -20 -20 -20 -20 -20 -20 -20 -20 -20 -20 -20 -20
9 10 6 18 10 29 13 26 27 33 25 35 5 10 4 -15 4 -16 -20 -20 -20 -20 -20 -20 -20 -20 -20 -20 -20 -20 -20 -20
12 22 9 2 -4 19 32 34 17 10 26 -8 -14 11 9 12 11 2 -20 -20 -20 -20 -20 -20 -20 -20 -20 -20 -20 -20 -20 -20
18 30 30 17 30 17 -7 5 3 16 6 -17 -3 -18 -1 15 13 -19 -10 -17 -20 -20 -20 -20 -20 -20 -20 -20 -20 -20 -20 -20
6 21 7 22 16 5 18 18 20 20 21 -10 -4 10 -0 -17 -20 -20 -20 -20 -20 -20 -20 -20 -20 -20 -20 -20 -20 -20 -20 -20
20 21 28 24 31 33 14 9 16 28 11 12 14 -2 -18 -14 -20 -20 -20 -20 -20 -20 -20 -20 -20 -20 -20 -20 -20 -20 -20 -20
10 25 24 19 12 21 31 34 31 2 19 28 33 25 3 -8 -20 -20 -20 -20 -20 -20 -20 -20 -20 -20 -20 -20 -20 -20 -20 -20
-5 11 26 30 19 17 19 24 25 26 11 18 29 23 -11 -20 -20 -20 -20 -20 -20 -20 -20 -20 -20 -20 -20 -20 -20 -20 -20 -20
19 13 -9 -15 -18 -20 -20 1 3 23 13 -0 -2 11 -20 24 16 -20 -20 -20 -20 -20 -20 -20 -20 -20 -20 -20 -20 -20 -20 -20
-20 -20 -20 -20 -20 -20 -20 -5 -3 -2 -17 5 -3 -20 -20 -20 21 -20 -20 -20 -20 -20 -20 -20 -20 -20 -20 -20 -20 -20 -20 -20
-20 0 -20 -20 -20 -20 -20 -20 -17 -10 -17 29 34 -20 -10 -18 -20 -20 -20 -20 -20 -20 -20 -20 -20 -20 -20 -20 -20 -20 -20 -20
-20 -20 -20 -20 -20 -11 -20 -20 4 9 26 32 -20 6 17 30 0 -20 -20 -20 -20 -20 -20 -20 -20 -20 -20 -20 -20 -20 -20 -20
-18 -20 -7 -20 -19 -20 -20 -20 -20 -20 -20 -20 -20 -15 -20 -20 -19 -17 -20 -20 -20 -20 -20 -20 -20 -20 -20 -20 -20 -20 -20 -20
-19 -20 -20 -20 -20 -2 -20 -20 -20 -20 -20 -20 -20 -20 18 -20 20 18 6 -17 -20 -20 -20 -20 -20 -20 -20 -20 -20 -20 -20 -20
-20 -20 -20 -20 -20 -20 -20 -20 -20 -20 -20 -20 -20 -20 -20 17 -20 -20 -20 -20 -20 -20 -20 -20 -20 -20 -20 -20 -20 -20 -20 -20
-20 -20 -20 -20 -20 -20 -20 -20 -20 -20 -20 -20 -20 -12 -20 -9 -6 -11 -9 -12 -20 -20 -20 -20 -20 -20 -20 -20 -15 -20 -20 -20
-20 -20 -20 -20 -20 -20 -20 -20 -20 -20 -20 23 -20 -20 -20 -20 15 -20 12 -20 -20 -20 -20 -20 -20 -20 -18 17 -20 -1 10 -20